Wayne, NE

6:19 PM CDT on September 24, 2016 (GMT -0500)
Wayne Municipal

Weather History for KLCG - February, 2013

Change the Weather History Date:

Wednesday, February 27, 2013

  Actual Average (KOFK) Record (KOFK)
Temperature  
Mean Temperature 26 °F 31 °F  
Max Temperature 33 °F 41 °F 75 °F (2016)
Min Temperature 18 °F 20 °F -18 °F (1899)
Degree Days  
Heating Degree Days 40 34  
Month to date heating degree days 1035  
Since 1 July heating degree days 5057  
Cooling Degree Days 0 0  
Month to date cooling degree days 0  
Year to date cooling degree days 0  
Moisture  
Dew Point 22 °F    
Average Humidity 83    
Maximum Humidity 96    
Minimum Humidity 68    
Precipitation  
Precipitation 0.00 in 0.03 in 0.63 in (1907)
Month to date precipitation 0.73  
Year to date precipitation 1.32  
Snow  
Snow 0.00 in 0.10 in - ()
Month to date snowfall 5.3  
Since 1 July snowfall 22.6  
Snow Depth -    
Sea Level Pressure  
Sea Level Pressure 30.02 in    
Wind  
Wind Speed 18 mph (NNW)    
Max Wind Speed 26 mph    
Max Gust Speed 36 mph    
Visibility 8 miles    
Events      
T = Trace of Precipitation, MM = Missing Value Source: NWS Daily Summary

Daily Weather History Graph

Daily Weather History Graph

Search for Another Location

Airport or City:

Trip Planner

Search our weather history database for the weather conditions in past years. The results will help you decide how hot, cold, wet, or windy it might be!

Date:

Astronomy

Feb. 27, 2013 Rise Set
Actual Time 7:05 AM CST 6:15 PM CST
Civil Twilight 6:37 AM CST 6:44 PM CST
Nautical Twilight 6:05 AM CST 7:16 PM CST
Astronomical Twilight 5:32 AM CST 7:49 PM CST
Moon 8:42 PM CST (2/27) 7:38 AM CST (2/27)
Length of Visible Light 12h 06m
Length of Day
11h 09m
Waning Gibbous, 96% of the Moon is Illuminated
Feb 27
Waning Gibbous
Mar 4
Last Quarter
Mar 11
New
Mar 19
First Quarter
Mar 27
Full

Hourly Weather History & Observations

Time (CST) Temp. Windchill Dew Point Humidity Pressure Visibility Wind Dir Wind Speed Gust Speed Precip Events Conditions
12:35 AM 23.9 °F 12.3 °F 22.6 °F 95% 29.95 in 4.0 mi NNW 12.7 mph 18.4 mph N/A   Overcast
12:55 AM 23.9 °F 11.2 °F 22.6 °F 95% 29.95 in 4.0 mi NNW 15.0 mph - N/A   Overcast
1:15 AM 23.7 °F 11.0 °F 22.5 °F 95% 29.94 in 3.0 mi NW 15.0 mph - N/A   Overcast
1:35 AM 23.5 °F 10.8 °F 22.5 °F 96% 29.94 in 3.0 mi NNW 15.0 mph - N/A   Overcast
1:55 AM 23.7 °F 11.5 °F 22.6 °F 96% 29.94 in 3.0 mi NNW 13.8 mph - N/A   Overcast
2:15 AM 23.5 °F 9.0 °F 22.6 °F 96% 29.94 in 2.5 mi NNW 19.6 mph - N/A   Overcast
2:35 AM 23.4 °F 10.1 °F 22.1 °F 95% 29.94 in 3.0 mi NNW 16.1 mph 19.6 mph N/A   Overcast
2:55 AM 23.2 °F 8.6 °F 21.9 °F 95% 29.93 in 4.0 mi NNW 19.6 mph - N/A   Overcast
3:15 AM 23.0 °F 10.1 °F 21.7 °F 95% 29.93 in 4.0 mi NNW 15.0 mph 21.9 mph N/A   Overcast
3:35 AM 22.8 °F 9.4 °F 21.6 °F 95% 29.94 in 4.0 mi NNW 16.1 mph 23.0 mph N/A   Overcast
3:55 AM 22.8 °F 9.4 °F 21.2 °F 93% 29.93 in 4.0 mi NNW 16.1 mph 24.2 mph N/A   Overcast
4:15 AM 22.6 °F 8.7 °F 21.2 °F 94% 29.93 in 4.0 mi NNW 17.3 mph 23.0 mph N/A   Overcast
4:35 AM 22.1 °F 7.6 °F 20.7 °F 94% 29.93 in 4.0 mi NNW 18.4 mph 24.2 mph N/A   Overcast
4:55 AM 21.7 °F 6.7 °F 20.1 °F 93% 29.94 in 4.0 mi NNW 19.6 mph 23.0 mph N/A   Overcast
5:15 AM 20.3 °F 5.7 °F 18.7 °F 93% 29.95 in 5.0 mi NNW 17.3 mph 27.6 mph N/A   Overcast
5:35 AM 19.9 °F 5.2 °F 18.1 °F 93% 29.95 in 5.0 mi NNW 17.3 mph 23.0 mph N/A   Mostly Cloudy
5:55 AM 19.4 °F 5.0 °F 17.6 °F 93% 29.96 in 7.0 mi NNW 16.1 mph - N/A   Scattered Clouds
6:15 AM 19.2 °F 5.8 °F 17.2 °F 92% 29.96 in 7.0 mi NNW 13.8 mph 19.6 mph N/A   Clear
6:35 AM 18.5 °F 3.8 °F 16.3 °F 91% 29.96 in 7.0 mi NNW 16.1 mph 23.0 mph N/A   Clear
6:55 AM 18.5 °F 3.3 °F 15.8 °F 89% 29.96 in 7.0 mi NW 17.3 mph 23.0 mph N/A   Clear
7:35 AM 19.0 °F 4.0 °F 15.8 °F 87% 29.97 in 7.0 mi NW 17.3 mph 23.0 mph N/A   Clear
7:55 AM 19.4 °F 3.6 °F 15.8 °F 86% 29.98 in 7.0 mi NW 19.6 mph - N/A   Clear
8:15 AM 19.9 °F 4.8 °F 15.8 °F 84% 30.00 in 10.0 mi NW 18.4 mph 26.5 mph N/A   Clear
8:35 AM 20.1 °F 5.0 °F 15.8 °F 83% 30.00 in 10.0 mi NW 18.4 mph 28.8 mph N/A   Clear
9:15 AM 22.1 °F 6.0 °F 16.7 °F 80% 30.00 in 10.0 mi NW 23.0 mph 29.9 mph N/A   Clear
9:35 AM 23.0 °F 7.6 °F 17.2 °F 79% 30.01 in 10.0 mi NW 21.9 mph 27.6 mph N/A   Clear
9:55 AM 23.7 °F 8.9 °F 17.6 °F 77% 30.01 in 10.0 mi NW 20.7 mph 31.1 mph N/A   Clear
10:15 AM 24.8 °F 10.7 °F 18.5 °F 77% 30.02 in 10.0 mi NNW 19.6 mph 25.3 mph N/A   Clear
10:35 AM 25.3 °F 11.4 °F 18.5 °F 75% 30.02 in 10.0 mi NNW 19.6 mph 26.5 mph N/A   Clear
10:55 AM 26.2 °F 13.4 °F 19.4 °F 75% 30.02 in 10.0 mi NNW 17.3 mph 26.5 mph N/A   Clear
11:15 AM 27.9 °F 15.1 °F 20.7 °F 74% 30.03 in 10.0 mi NNW 18.4 mph 24.2 mph N/A   Clear
11:35 AM 29.1 °F 16.0 °F 20.7 °F 71% 30.03 in 10.0 mi NW 20.7 mph 26.5 mph N/A   Clear
11:55 AM 29.8 °F 17.3 °F 21.2 °F 70% 30.04 in 10.0 mi NNW 19.6 mph 27.6 mph N/A   Clear
12:15 PM 30.2 °F 18.1 °F 21.4 °F 70% 30.03 in 10.0 mi NNW 18.4 mph 26.5 mph N/A   Clear
12:35 PM 30.9 °F 18.7 °F 22.5 °F 71% 30.03 in 10.0 mi NNW 19.6 mph 27.6 mph N/A   Clear
12:55 PM 31.3 °F 18.9 °F 22.3 °F 69% 30.03 in 10.0 mi NNW 20.7 mph 25.3 mph N/A   Clear
1:15 PM 31.8 °F 19.3 °F 22.5 °F 68% 30.04 in 10.0 mi NNW 21.9 mph 25.3 mph N/A   Clear
1:35 PM 32.0 °F 19.2 °F 22.5 °F 68% 30.04 in 10.0 mi NNW 23.0 mph 29.9 mph N/A   Clear
1:55 PM 32.4 °F 21.3 °F 23.4 °F 69% 30.05 in 10.0 mi NNW 17.3 mph 25.3 mph N/A   Clear
2:15 PM 32.4 °F 18.9 °F 23.4 °F 69% 30.05 in 10.0 mi NNW 26.5 mph 31.1 mph N/A   Clear
2:35 PM 32.9 °F 21.3 °F 23.9 °F 69% 30.04 in 10.0 mi NNW 19.6 mph 26.5 mph N/A   Clear
2:55 PM 32.9 °F 22.0 °F 24.6 °F 72% 30.05 in 10.0 mi NW 17.3 mph 26.5 mph N/A   Clear
3:15 PM 32.5 °F 20.8 °F 25.0 °F 74% 30.05 in 10.0 mi NW 19.6 mph 24.2 mph N/A   Clear
3:35 PM 32.9 °F 20.7 °F 24.8 °F 72% 30.05 in 10.0 mi NW 21.9 mph 27.6 mph N/A   Clear
3:55 PM 32.9 °F 21.6 °F 25.0 °F 73% 30.05 in 10.0 mi NW 18.4 mph 26.5 mph N/A   Clear
4:15 PM 32.9 °F 22.4 °F 25.9 °F 75% 30.06 in 10.0 mi NW 16.1 mph 23.0 mph N/A   Clear
4:35 PM 33.1 °F 22.2 °F 25.7 °F 74% 30.06 in 10.0 mi NW 17.3 mph 23.0 mph N/A   Clear
4:55 PM 32.9 °F 22.8 °F 25.9 °F 75% 30.06 in 10.0 mi NNW 15.0 mph 21.9 mph N/A   Clear
5:15 PM 32.9 °F 22.0 °F 27.1 °F 79% 30.06 in 10.0 mi NW 17.3 mph 23.0 mph N/A   Clear
5:35 PM 32.2 °F 21.1 °F 27.0 °F 81% 30.06 in 10.0 mi NNW 17.3 mph 24.2 mph N/A   Clear
5:55 PM 32.0 °F 20.5 °F 27.3 °F 83% 30.06 in 10.0 mi NNW 18.4 mph 23.0 mph N/A   Scattered Clouds
6:15 PM 32.0 °F 20.1 °F 27.1 °F 82% 30.07 in 10.0 mi NW 19.6 mph 27.6 mph N/A   Mostly Cloudy
6:35 PM 32.0 °F 18.4 °F 27.0 °F 82% 30.07 in 10.0 mi NNW 26.5 mph 32.2 mph N/A   Overcast
6:55 PM 32.0 °F 18.6 °F 27.0 °F 82% 30.08 in 10.0 mi NW 25.3 mph 32.2 mph N/A   Overcast
7:15 PM 32.0 °F 18.6 °F 27.1 °F 82% 30.08 in 10.0 mi NNW 25.3 mph 32.2 mph N/A   Overcast
7:35 PM 32.0 °F 19.5 °F 27.1 °F 82% 30.08 in 7.0 mi NNW 21.9 mph 29.9 mph N/A   Overcast
8:15 PM 31.1 °F 17.7 °F 26.4 °F 83% 30.08 in 7.0 mi NW 24.2 mph 31.1 mph N/A   Mostly Cloudy
8:35 PM 30.7 °F 16.9 °F 25.3 °F 80% 30.09 in 10.0 mi NNW 25.3 mph 35.7 mph N/A   Mostly Cloudy
8:55 PM 30.4 °F 17.0 °F 25.5 °F 82% 30.10 in 10.0 mi NNW 23.0 mph 31.1 mph N/A   Overcast
9:15 PM 29.8 °F 16.3 °F 25.5 °F 84% 30.10 in 10.0 mi NNW 23.0 mph 29.9 mph N/A   Overcast
9:35 PM 29.5 °F 17.2 °F 25.5 °F 85% 30.10 in 10.0 mi NNW 18.4 mph 26.5 mph N/A   Overcast
9:55 PM 28.8 °F 16.6 °F 24.8 °F 85% 30.10 in 10.0 mi NNW 17.3 mph 26.5 mph N/A   Overcast
10:35 PM 28.8 °F 16.2 °F 24.8 °F 85% 30.11 in 10.0 mi NNW 18.4 mph 26.5 mph N/A   Overcast
10:55 PM 28.6 °F 15.6 °F 24.8 °F 86% 30.11 in 10.0 mi NNW 19.6 mph 26.5 mph N/A   Overcast
11:15 PM 28.4 °F 17.0 °F 25.3 °F 88% 30.12 in 10.0 mi NNW 15.0 mph 25.3 mph N/A   Overcast
11:35 PM 28.4 °F 14.7 °F 25.5 °F 89% 30.12 in 10.0 mi NNW 21.9 mph 26.5 mph N/A   Overcast